Year,Month,Day,Hour,Minute,Value (Times are PST for temperature in C)
2014,07,30,00,00,18.40
2014,07,30,00,01,18.40
2014,07,30,00,02,18.50
2014,07,30,00,03,18.50
2014,07,30,00,04,18.50
2014,07,30,00,05,18.50
2014,07,30,00,06,18.50
2014,07,30,00,07,18.60
2014,07,30,00,08,18.60
2014,07,30,00,09,18.60
2014,07,30,00,10,18.60
2014,07,30,00,11,18.60
2014,07,30,00,12,18.60
2014,07,30,00,13,18.60
2014,07,30,00,14,18.60
2014,07,30,00,15,18.60
2014,07,30,00,16,18.60
2014,07,30,00,17,18.60
2014,07,30,00,18,18.60
2014,07,30,00,19,18.60
2014,07,30,00,20,18.60
2014,07,30,00,21,18.60
2014,07,30,00,22,18.60
2014,07,30,00,23,18.60
2014,07,30,00,24,18.70
2014,07,30,00,25,18.70
2014,07,30,00,26,18.70
2014,07,30,00,27,18.70
2014,07,30,00,28,18.70
2014,07,30,00,29,18.80
2014,07,30,00,30,18.80
2014,07,30,00,31,18.80
2014,07,30,00,32,18.80
2014,07,30,00,33,18.80
2014,07,30,00,34,18.80
2014,07,30,00,35,18.70
2014,07,30,00,36,18.70
2014,07,30,00,37,18.70
2014,07,30,00,38,18.60
2014,07,30,00,39,18.60
2014,07,30,00,40,18.50
2014,07,30,00,41,18.50
2014,07,30,00,42,18.40
2014,07,30,00,43,18.40
2014,07,30,00,44,18.30
2014,07,30,00,45,18.20
2014,07,30,00,46,18.20
2014,07,30,00,47,18.20
2014,07,30,00,48,18.20
2014,07,30,00,49,18.10
2014,07,30,00,50,18.10
2014,07,30,00,51,18.10
2014,07,30,00,52,18.10
2014,07,30,00,53,18.10
2014,07,30,00,54,18.10
2014,07,30,00,55,18.10
2014,07,30,00,56,18.20
2014,07,30,00,57,18.20
2014,07,30,00,58,18.20
2014,07,30,00,59,18.20
2014,07,30,01,00,18.30
2014,07,30,01,01,18.30
2014,07,30,01,02,18.30
2014,07,30,01,03,18.30
2014,07,30,01,04,18.30
2014,07,30,01,05,18.30
2014,07,30,01,06,18.30
2014,07,30,01,07,18.30
2014,07,30,01,08,18.30
2014,07,30,01,09,18.30
2014,07,30,01,10,18.30
2014,07,30,01,11,18.20
2014,07,30,01,12,18.20
2014,07,30,01,13,18.20
2014,07,30,01,14,18.20
2014,07,30,01,15,18.20
2014,07,30,01,16,18.20
2014,07,30,01,17,18.20
2014,07,30,01,18,18.20
2014,07,30,01,19,18.20
2014,07,30,01,20,18.20
2014,07,30,01,21,18.20
2014,07,30,01,22,18.20
2014,07,30,01,23,18.20
2014,07,30,01,24,18.20
2014,07,30,01,25,18.20
2014,07,30,01,26,18.20
2014,07,30,01,27,18.20
2014,07,30,01,28,18.20
2014,07,30,01,29,18.20
2014,07,30,01,30,18.20
2014,07,30,01,31,18.20
2014,07,30,01,32,18.20
2014,07,30,01,33,18.20
2014,07,30,01,34,18.20
2014,07,30,01,35,18.20
2014,07,30,01,36,18.20
2014,07,30,01,37,18.20
2014,07,30,01,38,18.20
2014,07,30,01,39,18.20
2014,07,30,01,40,18.30
2014,07,30,01,41,18.30
2014,07,30,01,42,18.30
2014,07,30,01,43,18.40
2014,07,30,01,44,18.40
2014,07,30,01,45,18.40
2014,07,30,01,46,18.40
2014,07,30,01,47,18.40
2014,07,30,01,48,18.40
2014,07,30,01,49,18.40
2014,07,30,01,50,18.40
2014,07,30,01,51,18.40
2014,07,30,01,52,18.30
2014,07,30,01,53,18.30
2014,07,30,01,54,18.30
2014,07,30,01,55,18.30
2014,07,30,01,56,18.30
2014,07,30,01,57,18.20
2014,07,30,01,58,18.20
2014,07,30,01,59,18.20
2014,07,30,02,00,18.20
2014,07,30,02,01,18.20
2014,07,30,02,02,18.20
2014,07,30,02,03,18.10
2014,07,30,02,04,18.10
2014,07,30,02,05,18.00
2014,07,30,02,06,17.90
2014,07,30,02,07,17.90
2014,07,30,02,08,17.90
2014,07,30,02,09,17.90
2014,07,30,02,10,17.80
2014,07,30,02,11,17.80
2014,07,30,02,12,17.90
2014,07,30,02,13,17.90
2014,07,30,02,14,17.90
2014,07,30,02,15,17.90
2014,07,30,02,16,17.90
2014,07,30,02,17,17.90
2014,07,30,02,18,17.90
2014,07,30,02,19,17.90
2014,07,30,02,20,17.90
2014,07,30,02,21,17.90
2014,07,30,02,22,18.10
2014,07,30,02,23,18.10
2014,07,30,02,24,18.10
2014,07,30,02,25,18.10
2014,07,30,02,26,18.10
2014,07,30,02,27,18.10
2014,07,30,02,28,18.10
2014,07,30,02,29,18.20
2014,07,30,02,30,18.20
2014,07,30,02,31,18.20
2014,07,30,02,32,18.20
2014,07,30,02,33,18.30
2014,07,30,02,34,18.30
2014,07,30,02,35,18.30
2014,07,30,02,36,18.20
2014,07,30,02,37,18.20
2014,07,30,02,38,18.20
2014,07,30,02,39,18.20
2014,07,30,02,40,18.10
2014,07,30,02,41,18.10
2014,07,30,02,42,18.00
2014,07,30,02,43,17.90
2014,07,30,02,44,17.90
2014,07,30,02,45,17.80
2014,07,30,02,46,17.80
2014,07,30,02,47,17.70
2014,07,30,02,48,17.60
2014,07,30,02,49,17.50
2014,07,30,02,50,17.40
2014,07,30,02,51,17.40
2014,07,30,02,52,17.30
2014,07,30,02,53,17.30
2014,07,30,02,54,17.20
2014,07,30,02,55,17.10
2014,07,30,02,56,17.00
2014,07,30,02,57,17.00
2014,07,30,02,58,16.90
2014,07,30,02,59,16.90
2014,07,30,03,00,16.80
2014,07,30,03,01,16.80
2014,07,30,03,02,16.70
2014,07,30,03,03,16.70
2014,07,30,03,04,16.70
2014,07,30,03,05,16.60
2014,07,30,03,06,16.50
2014,07,30,03,07,16.40
2014,07,30,03,08,16.40
2014,07,30,03,09,16.40
2014,07,30,03,10,16.30
2014,07,30,03,11,16.30
2014,07,30,03,12,16.20
2014,07,30,03,13,16.20
2014,07,30,03,14,16.20
2014,07,30,03,15,16.10
2014,07,30,03,16,16.10
2014,07,30,03,17,16.10
2014,07,30,03,18,16.10
2014,07,30,03,19,16.10
2014,07,30,03,20,16.00
2014,07,30,03,21,15.90
2014,07,30,03,22,15.90
2014,07,30,03,23,15.90
2014,07,30,03,24,15.80
2014,07,30,03,25,15.80
2014,07,30,03,26,15.80
2014,07,30,03,27,15.80
2014,07,30,03,28,15.80
2014,07,30,03,29,15.80
2014,07,30,03,30,15.80
2014,07,30,03,31,15.70
2014,07,30,03,32,15.70
2014,07,30,03,33,15.60
2014,07,30,03,34,15.60
2014,07,30,03,35,15.50
2014,07,30,03,36,15.50
2014,07,30,03,37,15.50
2014,07,30,03,38,15.40
2014,07,30,03,39,15.30
2014,07,30,03,40,15.30
2014,07,30,03,41,15.30
2014,07,30,03,42,15.30
2014,07,30,03,43,15.20
2014,07,30,03,44,15.20
2014,07,30,03,45,15.20
2014,07,30,03,46,15.20
2014,07,30,03,47,15.10
2014,07,30,03,48,15.10
2014,07,30,03,49,15.10
2014,07,30,03,50,15.00
2014,07,30,03,51,15.00
2014,07,30,03,52,15.00
2014,07,30,03,53,15.00
2014,07,30,03,54,15.00
2014,07,30,03,55,15.00
2014,07,30,03,56,15.10
2014,07,30,03,57,15.10
2014,07,30,03,58,15.10
2014,07,30,03,59,15.20
2014,07,30,04,00,15.20
2014,07,30,04,01,15.20
2014,07,30,04,02,15.30
2014,07,30,04,03,15.30
2014,07,30,04,04,15.20
2014,07,30,04,05,15.20
2014,07,30,04,06,15.20
2014,07,30,04,07,15.20
2014,07,30,04,08,15.10
2014,07,30,04,09,15.10
2014,07,30,04,10,15.00
2014,07,30,04,11,15.00
2014,07,30,04,12,15.00
2014,07,30,04,13,14.90
2014,07,30,04,14,14.90
2014,07,30,04,15,14.90
2014,07,30,04,16,14.80
2014,07,30,04,17,14.80
2014,07,30,04,18,14.80
2014,07,30,04,19,14.90
2014,07,30,04,20,14.90
2014,07,30,04,21,14.90
2014,07,30,04,22,14.90
2014,07,30,04,23,14.90
2014,07,30,04,24,14.90
2014,07,30,04,25,14.90
2014,07,30,04,26,14.80
2014,07,30,04,27,14.80
2014,07,30,04,28,14.80
2014,07,30,04,29,14.80
2014,07,30,04,30,14.80
2014,07,30,04,31,14.80
2014,07,30,04,32,14.80
2014,07,30,04,33,14.80
2014,07,30,04,34,14.80
2014,07,30,04,35,14.80
2014,07,30,04,36,14.80
2014,07,30,04,37,14.80
2014,07,30,04,38,14.80
2014,07,30,04,39,14.80
2014,07,30,04,40,14.80
2014,07,30,04,41,14.90
2014,07,30,04,42,14.90
2014,07,30,04,43,15.00
2014,07,30,04,44,15.10
2014,07,30,04,45,15.10
2014,07,30,04,46,15.20
2014,07,30,04,47,15.20
2014,07,30,04,48,15.30
2014,07,30,04,49,15.30
2014,07,30,04,50,15.40
2014,07,30,04,51,15.40
2014,07,30,04,52,15.50
2014,07,30,04,53,15.50
2014,07,30,04,54,15.50
2014,07,30,04,55,15.50
2014,07,30,04,56,15.50
2014,07,30,04,57,15.40
2014,07,30,04,58,15.40
2014,07,30,04,59,15.30
2014,07,30,05,00,15.30
2014,07,30,05,01,15.20
2014,07,30,05,02,15.20
2014,07,30,05,03,15.10
2014,07,30,05,04,15.00
2014,07,30,05,05,14.90
2014,07,30,05,06,14.90
2014,07,30,05,07,14.80
2014,07,30,05,08,14.80
2014,07,30,05,09,14.70
2014,07,30,05,10,14.60
2014,07,30,05,11,14.60
2014,07,30,05,12,14.50
2014,07,30,05,13,14.50
2014,07,30,05,14,14.40
2014,07,30,05,15,14.40
2014,07,30,05,16,14.40
2014,07,30,05,17,14.30
2014,07,30,05,18,14.30
2014,07,30,05,19,14.20
2014,07,30,05,20,14.20
2014,07,30,05,21,14.20
2014,07,30,05,22,14.20
2014,07,30,05,23,14.20
2014,07,30,05,24,14.20
2014,07,30,05,25,14.20
2014,07,30,05,26,14.10
2014,07,30,05,27,14.10
2014,07,30,05,28,14.10
2014,07,30,05,29,14.10
2014,07,30,05,30,14.10
2014,07,30,05,31,14.10
2014,07,30,05,32,14.10
2014,07,30,05,33,14.10
2014,07,30,05,34,14.10
2014,07,30,05,35,14.10
2014,07,30,05,36,14.10
2014,07,30,05,37,14.10
2014,07,30,05,38,14.10
2014,07,30,05,39,14.10
2014,07,30,05,40,14.10
2014,07,30,05,41,14.00
2014,07,30,05,42,14.00
2014,07,30,05,43,14.00
2014,07,30,05,44,14.00
2014,07,30,05,45,14.00
2014,07,30,05,46,13.90
2014,07,30,05,47,13.90
2014,07,30,05,48,13.90
2014,07,30,05,49,13.90
2014,07,30,05,50,13.80
2014,07,30,05,51,13.80
2014,07,30,05,52,13.80
2014,07,30,05,53,13.80
2014,07,30,05,54,13.80
2014,07,30,05,55,13.80
2014,07,30,05,56,13.80
2014,07,30,05,57,13.70
2014,07,30,05,58,13.70
2014,07,30,05,59,13.70
2014,07,30,06,00,13.70
2014,07,30,06,01,13.70
2014,07,30,06,02,13.70
2014,07,30,06,03,13.70
2014,07,30,06,04,13.60
2014,07,30,06,05,13.60
2014,07,30,06,06,13.60
2014,07,30,06,07,13.50
2014,07,30,06,08,13.50
2014,07,30,06,09,13.50
2014,07,30,06,10,13.50
2014,07,30,06,11,13.50
2014,07,30,06,12,13.40
2014,07,30,06,13,13.40
2014,07,30,06,14,13.40
2014,07,30,06,15,13.30
2014,07,30,06,16,13.30
2014,07,30,06,17,13.30
2014,07,30,06,18,13.30
2014,07,30,06,19,13.30
2014,07,30,06,20,13.30
2014,07,30,06,21,13.30
2014,07,30,06,22,13.30
2014,07,30,06,23,13.30
2014,07,30,06,24,13.30
2014,07,30,06,25,13.30
2014,07,30,06,26,13.30
2014,07,30,06,27,13.30
2014,07,30,06,28,13.40
2014,07,30,06,29,13.50
2014,07,30,06,30,13.50
2014,07,30,06,31,13.60
2014,07,30,06,32,13.60
2014,07,30,06,33,13.70
2014,07,30,06,34,13.70
2014,07,30,06,35,13.80
2014,07,30,06,36,13.80
2014,07,30,06,37,13.90
2014,07,30,06,38,13.90
2014,07,30,06,39,14.00
2014,07,30,06,40,14.00
2014,07,30,06,41,14.10
2014,07,30,06,42,14.10
2014,07,30,06,43,14.20
2014,07,30,06,44,14.20
2014,07,30,06,45,14.30
2014,07,30,06,46,14.30
2014,07,30,06,47,14.40
2014,07,30,06,48,14.50
2014,07,30,06,49,14.50
2014,07,30,06,50,14.60
2014,07,30,06,51,14.60
2014,07,30,06,52,14.70
2014,07,30,06,53,14.70
2014,07,30,06,54,14.70
2014,07,30,06,55,14.80
2014,07,30,06,56,14.80
2014,07,30,06,57,14.80
2014,07,30,06,58,14.80
2014,07,30,06,59,14.90
2014,07,30,07,00,14.90
2014,07,30,07,01,14.90
2014,07,30,07,02,15.00
2014,07,30,07,03,15.00
2014,07,30,07,04,15.00
2014,07,30,07,05,15.10
2014,07,30,07,06,15.10
2014,07,30,07,07,15.20
2014,07,30,07,08,15.30
2014,07,30,07,09,15.30
2014,07,30,07,10,15.40
2014,07,30,07,11,15.50
2014,07,30,07,12,15.50
2014,07,30,07,13,15.60
2014,07,30,07,14,15.70
2014,07,30,07,15,15.80
2014,07,30,07,16,15.80
2014,07,30,07,17,15.90
2014,07,30,07,18,16.00
2014,07,30,07,19,16.10
2014,07,30,07,20,16.20
2014,07,30,07,21,16.30
2014,07,30,07,22,16.40
2014,07,30,07,23,16.50
2014,07,30,07,24,16.60
2014,07,30,07,25,16.70
2014,07,30,07,26,16.90
2014,07,30,07,27,17.00
2014,07,30,07,28,17.10
2014,07,30,07,29,17.20
2014,07,30,07,30,17.30
2014,07,30,07,31,17.40
2014,07,30,07,32,17.50
2014,07,30,07,33,17.60
2014,07,30,07,34,17.70
2014,07,30,07,35,17.80
2014,07,30,07,36,17.80
2014,07,30,07,37,17.90
2014,07,30,07,38,17.90
2014,07,30,07,39,17.90
2014,07,30,07,40,18.00
2014,07,30,07,41,18.10
2014,07,30,07,42,18.10
2014,07,30,07,43,18.10
2014,07,30,07,44,18.10
2014,07,30,07,45,18.10
2014,07,30,07,46,18.10
2014,07,30,07,47,18.10
2014,07,30,07,48,18.10
2014,07,30,07,49,18.20
2014,07,30,07,50,18.20
2014,07,30,07,51,18.20
2014,07,30,07,52,18.30
2014,07,30,07,53,18.30
2014,07,30,07,54,18.40
2014,07,30,07,55,18.50
2014,07,30,07,56,18.60
2014,07,30,07,57,18.60
2014,07,30,07,58,18.70
2014,07,30,07,59,18.80
2014,07,30,08,00,18.80
2014,07,30,08,01,18.90
2014,07,30,08,02,18.90
2014,07,30,08,03,19.00
2014,07,30,08,04,19.10
2014,07,30,08,05,19.20
2014,07,30,08,06,19.30
2014,07,30,08,07,19.40
2014,07,30,08,08,19.50
2014,07,30,08,09,19.60
2014,07,30,08,10,19.70
2014,07,30,08,11,19.80
2014,07,30,08,12,19.90
2014,07,30,08,13,20.00
2014,07,30,08,14,20.20
2014,07,30,08,15,20.30
2014,07,30,08,16,20.50
2014,07,30,08,17,20.60
2014,07,30,08,18,20.70
2014,07,30,08,19,20.80
2014,07,30,08,20,20.90
2014,07,30,08,21,21.00
2014,07,30,08,22,21.00
2014,07,30,08,23,21.00
2014,07,30,08,24,21.00
2014,07,30,08,25,21.00
2014,07,30,08,26,21.00
2014,07,30,08,27,21.00
2014,07,30,08,28,21.00
2014,07,30,08,29,21.00
2014,07,30,08,30,21.00
2014,07,30,08,31,21.00
2014,07,30,08,32,21.00
2014,07,30,08,33,21.00
2014,07,30,08,34,21.10
2014,07,30,08,35,21.10
2014,07,30,08,36,21.10
2014,07,30,08,37,21.10
2014,07,30,08,38,21.00
2014,07,30,08,39,20.90
2014,07,30,08,40,20.90
2014,07,30,08,41,20.80
2014,07,30,08,42,20.80
2014,07,30,08,43,20.80
2014,07,30,08,44,20.90
2014,07,30,08,45,20.90
2014,07,30,08,46,20.90
2014,07,30,08,47,20.90
2014,07,30,08,48,20.90
2014,07,30,08,49,20.90
2014,07,30,08,50,20.90
2014,07,30,08,51,20.80
2014,07,30,08,52,20.70
2014,07,30,08,53,20.70
2014,07,30,08,54,20.70
2014,07,30,08,55,20.70
2014,07,30,08,56,20.80
2014,07,30,08,57,20.80
2014,07,30,08,58,20.80
2014,07,30,08,59,20.90
2014,07,30,09,00,20.90
2014,07,30,09,01,20.90
2014,07,30,09,02,20.90
2014,07,30,09,03,20.90
2014,07,30,09,04,21.00
2014,07,30,09,05,21.10
2014,07,30,09,06,21.20
2014,07,30,09,07,21.30
2014,07,30,09,08,21.30
2014,07,30,09,09,21.30
2014,07,30,09,10,21.30
2014,07,30,09,11,21.40
2014,07,30,09,12,21.40
2014,07,30,09,13,21.60
2014,07,30,09,14,21.60
2014,07,30,09,15,21.60
2014,07,30,09,16,21.70
2014,07,30,09,17,21.80
2014,07,30,09,18,21.80
2014,07,30,09,19,21.90
2014,07,30,09,20,21.90
2014,07,30,09,21,21.80
2014,07,30,09,22,21.80
2014,07,30,09,23,21.80
2014,07,30,09,24,21.70
2014,07,30,09,25,21.60
2014,07,30,09,26,21.50
2014,07,30,09,27,21.30
2014,07,30,09,28,21.30
2014,07,30,09,29,21.30
2014,07,30,09,30,21.30
2014,07,30,09,31,21.30
2014,07,30,09,32,21.20
2014,07,30,09,33,21.10
2014,07,30,09,34,21.10
2014,07,30,09,35,21.10
2014,07,30,09,36,21.10
2014,07,30,09,37,21.10
2014,07,30,09,38,21.20
2014,07,30,09,39,21.30
2014,07,30,09,40,21.40
2014,07,30,09,41,21.50
2014,07,30,09,42,21.60
2014,07,30,09,43,21.60
2014,07,30,09,44,21.60
2014,07,30,09,45,21.70
2014,07,30,09,46,21.70
2014,07,30,09,47,21.80
2014,07,30,09,48,21.80
2014,07,30,09,49,21.90
2014,07,30,09,50,21.90
2014,07,30,09,51,21.90
2014,07,30,09,52,21.90
2014,07,30,09,53,21.90
2014,07,30,09,54,21.90
2014,07,30,09,55,21.90
2014,07,30,09,56,22.00
2014,07,30,09,57,22.10
2014,07,30,09,58,22.20
2014,07,30,09,59,22.30
2014,07,30,10,00,22.40
2014,07,30,10,01,22.40
2014,07,30,10,02,22.30
2014,07,30,10,03,22.10
2014,07,30,10,04,22.10
2014,07,30,10,05,22.00
2014,07,30,10,06,21.90
2014,07,30,10,07,21.90
2014,07,30,10,08,21.80
2014,07,30,10,09,21.80
2014,07,30,10,10,21.90
2014,07,30,10,11,22.00
2014,07,30,10,12,22.10
2014,07,30,10,13,22.30
2014,07,30,10,14,22.40
2014,07,30,10,15,22.60
2014,07,30,10,16,22.70
2014,07,30,10,17,22.80
2014,07,30,10,18,22.60
2014,07,30,10,19,22.60
2014,07,30,10,20,22.60
2014,07,30,10,21,22.60
2014,07,30,10,22,22.60
2014,07,30,10,23,22.60
2014,07,30,10,24,22.70
2014,07,30,10,25,22.70
2014,07,30,10,26,22.80
2014,07,30,10,27,22.90
2014,07,30,10,28,22.90
2014,07,30,10,29,22.80
2014,07,30,10,30,22.80
2014,07,30,10,31,22.80
2014,07,30,10,32,22.90
2014,07,30,10,33,23.00
2014,07,30,10,34,23.20
2014,07,30,10,35,23.30
2014,07,30,10,36,23.30
2014,07,30,10,37,23.20
2014,07,30,10,38,23.10
2014,07,30,10,39,23.10
2014,07,30,10,40,23.00
2014,07,30,10,41,22.90
2014,07,30,10,42,23.00
2014,07,30,10,43,23.10
2014,07,30,10,44,23.30
2014,07,30,10,45,23.30
2014,07,30,10,46,23.50
2014,07,30,10,47,23.60
2014,07,30,10,48,23.60
2014,07,30,10,49,23.60
2014,07,30,10,50,23.50
2014,07,30,10,51,23.40
2014,07,30,10,52,23.30
2014,07,30,10,53,23.20
2014,07,30,10,54,23.10
2014,07,30,10,55,23.00
2014,07,30,10,56,23.00
2014,07,30,10,57,23.10
2014,07,30,10,58,23.10
2014,07,30,10,59,23.20
2014,07,30,11,00,23.30
2014,07,30,11,01,23.30
2014,07,30,11,02,23.30
2014,07,30,11,03,23.20
2014,07,30,11,04,23.10
2014,07,30,11,05,23.00
2014,07,30,11,06,22.90
2014,07,30,11,07,22.90
2014,07,30,11,08,22.80
2014,07,30,11,09,22.70
2014,07,30,11,10,22.70
2014,07,30,11,11,22.80
2014,07,30,11,12,22.80
2014,07,30,11,13,22.90
2014,07,30,11,14,23.00
2014,07,30,11,15,23.00
2014,07,30,11,16,22.90
2014,07,30,11,17,23.00
2014,07,30,11,18,23.10
2014,07,30,11,19,23.20
2014,07,30,11,20,23.30
2014,07,30,11,21,23.30
2014,07,30,11,22,23.30
2014,07,30,11,23,23.40
2014,07,30,11,24,23.40
2014,07,30,11,25,23.40
2014,07,30,11,26,23.30
2014,07,30,11,27,23.30
2014,07,30,11,28,23.40
2014,07,30,11,29,23.50
2014,07,30,11,30,23.60
2014,07,30,11,31,23.80
2014,07,30,11,32,23.90
2014,07,30,11,33,24.00
2014,07,30,11,34,24.20
2014,07,30,11,35,24.30
2014,07,30,11,36,24.50
2014,07,30,11,37,24.40
2014,07,30,11,38,24.50
2014,07,30,11,39,24.50
2014,07,30,11,40,24.50
2014,07,30,11,41,24.40
2014,07,30,11,42,24.30
2014,07,30,11,43,24.20
2014,07,30,11,44,24.10
2014,07,30,11,45,23.90
2014,07,30,11,46,23.70
2014,07,30,11,47,23.70
2014,07,30,11,48,23.70
2014,07,30,11,49,23.60
2014,07,30,11,50,23.40
2014,07,30,11,51,23.30
2014,07,30,11,52,23.30
2014,07,30,11,53,23.30
2014,07,30,11,54,23.30
2014,07,30,11,55,23.30
2014,07,30,11,56,23.20
2014,07,30,11,57,23.20
2014,07,30,11,58,23.30
2014,07,30,11,59,23.30
2014,07,30,12,00,23.30
2014,07,30,12,01,23.30
2014,07,30,12,02,23.30
2014,07,30,12,03,23.40
2014,07,30,12,04,23.40
2014,07,30,12,05,23.40
2014,07,30,12,06,23.40
2014,07,30,12,07,23.40
2014,07,30,12,08,23.40
2014,07,30,12,09,23.40
2014,07,30,12,10,23.30
2014,07,30,12,11,23.30
2014,07,30,12,12,23.30
2014,07,30,12,13,23.30
2014,07,30,12,14,23.40
2014,07,30,12,15,23.40
2014,07,30,12,16,23.30
2014,07,30,12,17,23.40
2014,07,30,12,18,23.40
2014,07,30,12,19,23.50
2014,07,30,12,20,23.60
2014,07,30,12,21,23.50
2014,07,30,12,22,23.40
2014,07,30,12,23,23.40
2014,07,30,12,24,23.40
2014,07,30,12,25,23.50
2014,07,30,12,26,23.50
2014,07,30,12,27,23.40
2014,07,30,12,28,23.40
2014,07,30,12,29,23.50
2014,07,30,12,30,23.60
2014,07,30,12,31,23.60
2014,07,30,12,32,23.70
2014,07,30,12,33,23.70
2014,07,30,12,34,23.50
2014,07,30,12,35,23.30
2014,07,30,12,36,23.20
2014,07,30,12,37,23.10
2014,07,30,12,38,23.10
2014,07,30,12,39,23.10
2014,07,30,12,40,23.10
2014,07,30,12,41,23.10
2014,07,30,12,42,23.00
2014,07,30,12,43,22.90
2014,07,30,12,44,22.90
2014,07,30,12,45,22.80
2014,07,30,12,46,22.60
2014,07,30,12,47,22.60
2014,07,30,12,48,22.60
2014,07,30,12,49,22.60
2014,07,30,12,50,22.70
2014,07,30,12,51,22.70
2014,07,30,12,52,22.70
2014,07,30,12,53,22.80
2014,07,30,12,54,22.80
2014,07,30,12,55,22.90
2014,07,30,12,56,23.00
2014,07,30,12,57,23.10
2014,07,30,12,58,23.10
2014,07,30,12,59,23.20
2014,07,30,13,00,23.20
2014,07,30,13,01,23.10
2014,07,30,13,02,22.90
2014,07,30,13,03,22.90
2014,07,30,13,04,22.90
2014,07,30,13,05,23.00
2014,07,30,13,06,23.10
2014,07,30,13,07,23.30
2014,07,30,13,08,23.30
2014,07,30,13,09,23.40
2014,07,30,13,10,23.40
2014,07,30,13,11,23.60
2014,07,30,13,12,23.60
2014,07,30,13,13,23.70
2014,07,30,13,14,23.70
2014,07,30,13,15,23.70
2014,07,30,13,16,23.70
2014,07,30,13,17,23.70
2014,07,30,13,18,23.70
2014,07,30,13,19,23.80
2014,07,30,13,20,23.80
2014,07,30,13,21,23.90
2014,07,30,13,22,23.90
2014,07,30,13,23,23.90
2014,07,30,13,24,24.10
2014,07,30,13,25,24.10
2014,07,30,13,26,24.20
2014,07,30,13,27,24.40
2014,07,30,13,28,24.50
2014,07,30,13,29,24.70
2014,07,30,13,30,24.90
2014,07,30,13,31,25.10
2014,07,30,13,32,25.30
2014,07,30,13,33,25.50
2014,07,30,13,34,25.50
2014,07,30,13,35,25.50
2014,07,30,13,36,25.40
2014,07,30,13,37,25.30
2014,07,30,13,38,25.20
2014,07,30,13,39,25.20
2014,07,30,13,40,25.20
2014,07,30,13,41,25.20
2014,07,30,13,42,25.10
2014,07,30,13,43,25.00
2014,07,30,13,44,25.10
2014,07,30,13,45,25.10
2014,07,30,13,46,25.20
2014,07,30,13,47,25.30
2014,07,30,13,48,25.40
2014,07,30,13,49,25.40
2014,07,30,13,50,25.40
2014,07,30,13,51,25.40
2014,07,30,13,52,25.40
2014,07,30,13,53,25.40
2014,07,30,13,54,25.40
2014,07,30,13,55,25.40
2014,07,30,13,56,25.50
2014,07,30,13,57,25.60
2014,07,30,13,58,25.60
2014,07,30,13,59,25.60
2014,07,30,14,00,25.70
2014,07,30,14,01,25.70
2014,07,30,14,02,25.80
2014,07,30,14,03,25.90
2014,07,30,14,04,26.10
2014,07,30,14,05,26.30
2014,07,30,14,06,26.30
2014,07,30,14,07,26.20
2014,07,30,14,08,26.20
2014,07,30,14,09,26.20
2014,07,30,14,10,26.30
2014,07,30,14,11,26.40
2014,07,30,14,12,26.60
2014,07,30,14,13,26.70
2014,07,30,14,14,26.80
2014,07,30,14,15,26.80
2014,07,30,14,16,26.90
2014,07,30,14,17,27.00
2014,07,30,14,18,27.10
2014,07,30,14,19,27.10
2014,07,30,14,20,27.10
2014,07,30,14,21,27.10
2014,07,30,14,22,27.10
2014,07,30,14,23,27.10
2014,07,30,14,24,27.00
2014,07,30,14,25,27.10
2014,07,30,14,26,27.20
2014,07,30,14,27,27.30
2014,07,30,14,28,27.30
2014,07,30,14,29,27.40
2014,07,30,14,30,27.40
2014,07,30,14,31,27.50
2014,07,30,14,32,27.60
2014,07,30,14,33,27.60
2014,07,30,14,34,27.50
2014,07,30,14,35,27.40
2014,07,30,14,36,27.40
2014,07,30,14,37,27.30
2014,07,30,14,38,27.40
2014,07,30,14,39,27.50
2014,07,30,14,40,27.60
2014,07,30,14,41,27.60
2014,07,30,14,42,27.60
2014,07,30,14,43,27.60
2014,07,30,14,44,27.60
2014,07,30,14,45,27.50
2014,07,30,14,46,27.40
2014,07,30,14,47,27.30
2014,07,30,14,48,27.30
2014,07,30,14,49,27.30
2014,07,30,14,50,27.20
2014,07,30,14,51,27.10
2014,07,30,14,52,27.00
2014,07,30,14,53,26.70
2014,07,30,14,54,26.50
2014,07,30,14,55,26.20
2014,07,30,14,56,26.00
2014,07,30,14,57,25.90
2014,07,30,14,58,25.90
2014,07,30,14,59,25.80
2014,07,30,15,00,25.80
2014,07,30,15,01,25.80
2014,07,30,15,02,25.80
2014,07,30,15,03,25.80
2014,07,30,15,04,25.80
2014,07,30,15,05,25.70
2014,07,30,15,06,25.70
2014,07,30,15,07,25.50
2014,07,30,15,08,25.40
2014,07,30,15,09,25.40
2014,07,30,15,10,25.40
2014,07,30,15,11,25.50
2014,07,30,15,12,25.50
2014,07,30,15,13,25.60
2014,07,30,15,14,25.70
2014,07,30,15,15,25.70
2014,07,30,15,16,25.90
2014,07,30,15,17,25.90
2014,07,30,15,18,26.00
2014,07,30,15,19,26.00
2014,07,30,15,20,26.00
2014,07,30,15,21,25.90
2014,07,30,15,22,25.90
2014,07,30,15,23,26.00
2014,07,30,15,24,26.10
2014,07,30,15,25,26.20
2014,07,30,15,26,26.20
2014,07,30,15,27,26.20
2014,07,30,15,28,26.20
2014,07,30,15,29,26.10
2014,07,30,15,30,26.20
2014,07,30,15,31,26.20
2014,07,30,15,32,26.10
2014,07,30,15,33,26.00
2014,07,30,15,34,26.00
2014,07,30,15,35,26.00
2014,07,30,15,36,25.90
2014,07,30,15,37,26.00
2014,07,30,15,38,26.00
2014,07,30,15,39,25.90
2014,07,30,15,40,25.80
2014,07,30,15,41,25.70
2014,07,30,15,42,25.70
2014,07,30,15,43,25.80
2014,07,30,15,44,25.80
2014,07,30,15,45,25.80
2014,07,30,15,46,25.70
2014,07,30,15,47,25.60
2014,07,30,15,48,25.60
2014,07,30,15,49,25.60
2014,07,30,15,50,25.50
2014,07,30,15,51,25.50
2014,07,30,15,52,25.50
2014,07,30,15,53,25.50
2014,07,30,15,54,25.60
2014,07,30,15,55,25.70
2014,07,30,15,56,25.80
2014,07,30,15,57,25.90
2014,07,30,15,58,26.00
2014,07,30,15,59,26.10
2014,07,30,16,00,26.30
2014,07,30,16,01,26.50
2014,07,30,16,02,26.70
2014,07,30,16,03,26.90
2014,07,30,16,04,27.10
2014,07,30,16,05,27.30
2014,07,30,16,06,27.40
2014,07,30,16,07,27.70
2014,07,30,16,08,27.90
2014,07,30,16,09,28.10
2014,07,30,16,10,28.20
2014,07,30,16,11,28.40
2014,07,30,16,12,28.50
2014,07,30,16,13,28.70
2014,07,30,16,14,28.80
2014,07,30,16,15,28.80
2014,07,30,16,16,28.60
2014,07,30,16,17,28.60
2014,07,30,16,18,28.60
2014,07,30,16,19,28.50
2014,07,30,16,20,28.40
2014,07,30,16,21,28.30
2014,07,30,16,22,28.40
2014,07,30,16,23,28.50
2014,07,30,16,24,28.60
2014,07,30,16,25,28.70
2014,07,30,16,26,28.80
2014,07,30,16,27,28.80
2014,07,30,16,28,28.90
2014,07,30,16,29,29.00
2014,07,30,16,30,29.00
2014,07,30,16,31,28.90
2014,07,30,16,32,28.60
2014,07,30,16,33,28.40
2014,07,30,16,34,28.30
2014,07,30,16,35,28.20
2014,07,30,16,36,28.30
2014,07,30,16,37,28.40
2014,07,30,16,38,28.40
2014,07,30,16,39,28.40
2014,07,30,16,40,28.40
2014,07,30,16,41,28.40
2014,07,30,16,42,28.40
2014,07,30,16,43,28.40
2014,07,30,16,44,28.40
2014,07,30,16,45,28.40
2014,07,30,16,46,28.40
2014,07,30,16,47,28.60
2014,07,30,16,48,28.60
2014,07,30,16,49,28.70
2014,07,30,16,50,28.70
2014,07,30,16,51,28.80
2014,07,30,16,52,28.80
2014,07,30,16,53,28.80
2014,07,30,16,54,28.80
2014,07,30,16,55,28.80
2014,07,30,16,56,28.80
2014,07,30,16,57,28.80
2014,07,30,16,58,28.90
2014,07,30,16,59,28.90
2014,07,30,17,00,28.90
2014,07,30,17,01,28.90
2014,07,30,17,02,29.00
2014,07,30,17,03,29.00
2014,07,30,17,04,29.00
2014,07,30,17,05,29.10
2014,07,30,17,06,29.10
2014,07,30,17,07,29.20
2014,07,30,17,08,29.30
2014,07,30,17,09,29.30
2014,07,30,17,10,29.40
2014,07,30,17,11,29.40
2014,07,30,17,12,29.40
2014,07,30,17,13,29.50
2014,07,30,17,14,29.50
2014,07,30,17,15,29.50
2014,07,30,17,16,29.50
2014,07,30,17,17,29.50
2014,07,30,17,18,29.40
2014,07,30,17,19,29.40